User: anonymous   Login
Location: Ay?beleni
(36.6500°N, 30.3000°E)
Time: 16:58:42
(UTC+00:00)
Language:

Nadezhda 1 Rocket - Orbit

View from above orbital plane
View from above orbital plane
View from above satellite
View from above satellite

Ground track
Ground track

The orbit data is extracted from the following two-line orbital elements,

1 20104U 89050B   20185.43206585  .00000009  00000-0 -54648-5 0  9990
2 20104  82.9557  66.3249 0042659 311.0449  48.7024 13.77318962557710
Epoch (UTC): 03 July 2020 10:22:10
Eccentricity: 0.0042659
inclination: 82.9557°
perigee height: 942 km
apogee height: 1005 km
right ascension of ascending node: 66.3249°
argument of perigee: 311.0449°
revolutions per day: 13.77318962
mean anomaly at epoch: 48.7024°
orbit number at epoch: 55771

The dashed part of the orbit path shows where the satellite is in the earth's shadow,  

DLR